This demonstration page uses our WeatherBlox Daily Observations layout. Learn more.

Left ArrowRight Arrow

Hourly Observations for May 23, 2019

Temp ( °F °C ) Dew Point ( °F °C ) Humidity (%) Winds ( mph kmh ) Pressure ( in mb ) Visibility ( mi km ) Precip ( " mm )
6:30 am 06:30 Cloudy with Nearby Thunderstorms 70 21 63 17 78 78 NNW 16 26 30.05 1018 8 13 N/A
6:47 am 06:47 Cloudy with Thunderstorms 66 19 59 15 78 78 NW 12 19 30.11 1020 4 6 N/A
6:54 am 06:54 Cloudy with Thunderstorms 64 18 61 16 88 88 WNW 17 28 30.12 1020 1 1 N/A
7:11 am 07:11 Cloudy with Thunderstorms 64 18 61 16 88 88 NW 12 19 30.11 1020 2 2 N/A
7:28 am 07:28 Cloudy with Thunderstorms 64 18 61 16 88 88 WNW 8 13 30.12 1020 5 8 N/A
7:51 am 07:51 Cloudy with Light Rain 64 18 61 16 88 88 WNW 6 9 30.13 1020 7 11 N/A
8:18 am 08:18 Cloudy with Light Rain 64 18 61 16 88 88 WNW 6 9 30.14 1021 4 6 N/A
8:48 am 08:48 Cloudy with Light Rain 64 18 61 16 88 88 S 14 22 30.11 1020 4 6 N/A
9:47 am 09:47 Mostly Cloudy 64 18 63 17 94 94 S 6 9 30.08 1019 10 16 N/A
10:01 am 10:01 Mostly Cloudy with Nearby Thunderstorms 66 19 63 17 88 88 SSW 7 11 30.09 1019 10 16 N/A
10:39 am 10:39 Cloudy 66 19 63 17 88 88 SSW 7 11 30.08 1019 10 16 N/A
10:54 am 10:54 Cloudy 66 19 63 17 88 88 SSW 10 17 30.09 1019 10 16 N/A
11:52 am 11:52 Cloudy 68 20 64 18 88 88 S 6 9 30.09 1019 10 16 N/A
12:45 pm 12:45 Cloudy 73 23 66 19 78 78 S 12 19 30.08 1019 10 16 N/A
1:21 pm 13:21 Mostly Cloudy 77 25 68 20 74 74 SW 16 26 30.07 1018 10 16 N/A
1:47 pm 13:47 Cloudy 79 26 70 21 74 74 SW 15 24 30.07 1018 10 16 N/A
2:45 pm 14:45 Mostly Cloudy 82 28 68 20 62 62 WSW 16 26 30.04 1017 10 16 N/A
3:45 pm 15:45 Mostly Cloudy 84 29 68 20 58 58 WSW 18 30 30.01 1016 10 16 N/A
4:45 pm 16:45 Mostly Cloudy 82 28 68 20 62 62 W 12 19 30.02 1016 10 16 N/A
5:45 pm 17:45 Mostly Cloudy 82 28 66 19 58 58 W 16 26 30.02 1016 10 16 N/A
6:45 pm 18:45 Mostly Cloudy 82 28 66 19 58 58 W 14 22 30.03 1017 10 16 N/A
7:45 pm 19:45 Mostly Sunny 79 26 66 19 65 65 W 12 19 30.02 1017 10 16 N/A
8:45 pm 20:45 Mostly Sunny 75 24 66 19 74 74 WSW 7 11 30.04 1017 10 16 N/A
9:45 pm 21:45 Mostly Clear 73 23 66 19 78 78 SW 6 9 30.06 1018 10 16 N/A

Powered by AerisWeather